www.pogodaiklimat.ru

Погода и климат >> Архив погоды >> Узбекистан >> Гурлен


ПОГОДА в Гурлене

  • Прогноз погоды в Гурлене
  • Монитор погоды в Гурлене

АРХИВ ПОГОДЫ в Гурлене

Время (UTC), дата Ветер
(напр.,м/с)
 
Видим.   Явления Облачность Т
(С)
Тd
(С)
f
(%)
Тe
(С)
Тes
(С)
Комфортность P
(гПа)
Po
(гПа)
Тmin
(С)
Tmax
(С)
R
(мм)
R24
(мм)
S
(см)
15 18.06 С 1 10 км 10/0 600 м
[Ac As]
+31.2 -10.7 6 +27 +27 жарко 997.0 +34.1
18 18.06 штиль 0 н/о 10/0
[Ac As]
+29.0 -7.1 9 +25 +25 комфорт 998.0 +34.1
21 18.06 штиль 0 н/о 10/0
[Ac As]
+27.0 -7.1 10 +24 +24 комфорт 998.0
00 19.06 СЗ 2 10 км слаб. дождь 10/0 600 м
[Ac und]
+23.1 -16.6 6 +20 +20 999.0
03 19.06 штиль 0 10 км 8/0
[Ac und]
+23.0 -19.1 5 +20 +22 999.0 +19.0
06 19.06 С 1 10 км 4/0
[Ac lent]
+29.2 -16.0 4 +25 +38 комфорт 998.0 +19.0 0.0
12 19.06 З 1 10 км 4/0
[Ac lent]
+34.0 -13.2 4 +29 +36 жарко 996.0
15 19.06 З 1 10 км 6/0
[Ac lent]
+33.8 -13.4 4 +29 +29 жарко 996.0 +34.2
18 19.06 СЗ 1 н/о 3/0
[Ac lent]
+26.8 -14.1 6 +23 +23 комфорт 998.0 +34.2
21 19.06 С 1 н/о 3/0
[Ac lent]
+23.4 -13.0 8 +20 +20 998.0
00 20.06 СВ 1 н/о 6/0
[Ac As]
+23.2 -6.5 13 +21 +21 комфорт 998.0
03 20.06 СВ 1 10 км 3/0
[Cs]
+23.6 -8.2 11 +21 +26 комфорт 999.0 +20.5
06 20.06 штиль 0 10 км ясно +31.2 -8.1 7 +27 +49 жарко 998.0 +20.5
09 20.06 штиль 0 10 км ясно +35.2 -8.6 6 +31 +56 опасность
солнечного
удара
997.0
12 20.06 штиль 0 10 км ясно +35.3 -9.2 5 +31 +42 жарко 996.0
15 20.06 штиль 0 10 км ясно +33.4 -15.6 4 +29 +29 жарко 996.0 +36.0
18 20.06 штиль 0 н/о ясно +26.4 -19.6 4 +22 +22 комфорт 997.0 +36.0
21 20.06 штиль 0 н/о ясно +24.0 -9.5 10 +22 +22 комфорт 997.0
00 21.06 В 1 н/о ясно +22.3 -6.7 14 +21 +21 комфорт 998.0
03 21.06 В 3 10 км ясно +26.0 -7.4 10 +23 +27 комфорт 998.0 +19.5
09 21.06 В 4 10 км ясно +35.0 -1.5 10 +31 +44 жарко 997.0
12 21.06 ЮВ 2 10 км ясно +38.0 -5.0 6 +34 +42 очень
жарко
996.0
15 21.06 СВ 1 10 км ясно +35.0 -8.6 6 +31 +31 жарко 995.0 +38.4
18 21.06 С 2 н/о ясно +28.0 -10.3 7 +24 +24 комфорт 997.0 +38.4
21 21.06 штиль 0 н/о ясно +26.5 -9.3 9 +23 +23 комфорт 998.0
00 22.06 штиль 0 н/о ясно +25.3 -10.3 9 +22 +22 комфорт 999.0
06 22.06 СВ 2 10 км ясно +35.2 -9.5 5 +31 +47 жарко 1001.0 +22.5
12 22.06 СЗ 4 10 км 6/0
[Ac lent]
+35.3 -10.0 5 +31 +34 жарко 1000.0
15 22.06 СЗ 2 10 км ясно +33.2 -10.7 5 +29 +29 жарко 1001.0 +35.6
18 22.06 штиль 0 н/о ясно +25.1 -15.0 6 +22 +22 комфорт 1002.0 +35.6
21 22.06 штиль 0 н/о ясно +22.3 -15.1 7 +20 +20 1003.0
00 23.06 штиль 0 н/о ясно +24.0 -10.3 9 +21 +21 комфорт 1003.0
03 23.06 штиль 0 10 км ясно +26.9 -14.2 6 +23 +29 комфорт 1004.0 +20.0
06 23.06 В 3 10 км ясно +34.0 -14.7 4 +29 +43 жарко 1004.0 +20.0
09 23.06 В 4 10 км ясно +36.4 -12.9 4 +32 +44 жарко 1004.0
12 23.06 В 3 10 км ясно +37.3 -13.4 3 +32 +39 жарко 1003.0
15 23.06 С 1 10 км 4/0
[Ac lent]
+36.4 -12.9 4 +32 +32 жарко 1002.0 +37.6
18 23.06 СЗ 1 н/о 3/0
[Ac lent]
+27.6 -20.0 3 +23 +23 комфорт 1004.0 +37.6
21 23.06 В 1 н/о 4/0
[Ac lent]
+27.8 -12.8 6 +24 +24 комфорт 1004.0
00 24.06 СВ 1 н/о 3/0
[Ac lent]
+24.4 -13.9 7 +21 +21 комфорт 1005.0
03 24.06 С 2 10 км 3/0
[Cs]
+26.4 -14.0 6 +23 +27 комфорт 1005.0 +21.0
06 24.06 В 3 10 км ясно +35.1 -14.0 4 +30 +44 жарко 1005.0 +21.0
09 24.06 СВ 3 10 км ясно +35.3 -18.2 3 +30 +46 жарко 1004.0
12 24.06 СВ 2 10 км ясно +35.4 -20.2 2 +30 +38 жарко 1004.0
15 24.06 СЗ 2 10 км ясно +33.4 -15.1 4 +29 +29 жарко 1003.0 +35.1

 

Местоположение метеостанции Гурлен (Хорезмская область, Узбекистан): широта 41.85 долгота 60.39 высота над уровнем моря 100 м.

В архиве по умолчанию представлена погода в Гурлене за последнюю неделю. Архивные данные за месяц целиком и за предыдущие месяцы, начиная с января 2011 года, Вы можете получить, выбрав интересующий диапазон дат из раскрывающегося списка и нажав кнопку "Ввод!".


*Определитесь, кто Вы:
робот инопланетянин человек

Внимание! Время в таблицах - всемирное. Для получения местного времени необходимо прибавить поправку, которая равна 5 ч.

Смотрите также архив погоды в соседних городах и на ближайших метеорологических станциях:

Погода в Ургенче (Хорезмская область, Узбекистан) (35 км)
Погода в Дашогузе (Дашогузский велаят, Туркменистан) (49 км)
Погода в Хиве (Хорезмская область, Узбекистан) (50 км)
Погода в Тахиаташе (Каракалпакстан, Узбекистан) (89 км)
Погода в Нукусе (Каракалпакстан, Узбекистан) (92 км)
Погода в Тахтакупыре (Каракалпакстан, Узбекистан) (95 км)
Погода в Тюя-Муюне (Лебапский велаят, Туркменистан) (109 км)
Погода в Кенеургенче (Дашогузский велаят, Туркменистан) (115 км)
Погода в Чимбае (Каракалпакстан, Узбекистан) (131 км)
Погода в Шах-Сенеме (Дашогузский велаят, Туркменистан) (142 км)

Пояснения к столбцам:

Ветер - указаны скорость ветра в м/с - средняя за 10 мин, порывы в срок и между сроками (в фигурных скобках) и направление, откуда дует ветер: С - северный, СВ - северо-восточный, В - восточный, ЮВ - юго-восточный, Ю - южный, ЮЗ - юго-западный, З - западный, СЗ - северо-западный.
Видимость - горизонтальная дальность видимости в метрах или километрах. При видимости от 1 до 10 км при отсутствии осадков обычно наблюдается дымка, при ухудшении видимости до 1 км и менее - туман. В сухую погоду видимость может ухудшаться дымом, пылью или мглою.
Явления - указаны атмосферные явления, наблюдавшиеся в срок или в последний час перед сроком; фигурными скобками обозначены явления, наблюдавшиеся между сроками (за 1-3 часа до срока); квадратными скобками обозначены град или гололедные отложения с указанием их диаметра в мм.
Облачность - указаны через наклонную черту общая и нижняя облачность в баллах и высота нижней границы облаков в метрах; квадратными скобками обозначены формы облаков: Ci - перистые, Cs - перисто-слоистые, Cc - перисто-кучевые, Ac - высококучевые, As - высокослоистые, Sc - слоисто-кучевые, Ns - слоисто-дождевые, Cu - кучевые, Cb - кучево-дождевые. Подробнее классификацию облаков см. в Атласе облаков (PDF).
T - Температура воздуха - температура, измеренная на высоте 2 м над землей.
Td - Температура точки росы - температура, при понижении до которой содержащийся в воздухе водяной пар достигнет насыщения.
f - Относительная влажность воздуха - влажноcть воздуха, измеренная на высоте 2 м над землей.
Te - Эффективная температура - температура, которую ощущает одетый по сезону человек в тени. Характеристика душности погоды. При расчете учитывается влияние влажности воздуха и скорости ветра на теплоощущения человека.
Tes - Эффективная температура на солнце - температура, которую ощущает человек, с поправкой на солнечный нагрев. Характеристика знойности погоды. Зависит от высоты солнца над горизонтом, облачности и скорости ветра. Ночью, в пасмурную погоду, а также при ветре 12 м/с и более поправка равна нулю.
P - Атмосферное давление - приведенное к уровню моря атмосферное давление.
Po - Атмосферное давление - измеренное на уровне метеостанции атмосферное давление.
Tmin - Минимальная температура - минимум температуры воздуха на высоте 2 м над землей.
Tmax - Максимальная температура - максимум температуры воздуха на высоте 2 м над землей.
R - Количество осадков - Количество выпавших осадков за период времени, мм. При наведении курсора мыши на число - период времени, за который выпало указанное количество осадков.
R24 - Количество осадков - Количество выпавших осадков за 24 часа, мм.
S - Снежный покров - Высота снежного покрова, см. При наведении курсора мыши на число - состояние снежного покрова и степень покрытия местности в баллах.